User: anonymous   Login
Location: *
(6.0000°S, 32.3997°W)
Time: 12:20:33
(UTC+00:00)
Language:

VEP-3 - Orbit

View from above orbital plane
View from above orbital plane
View from above satellite
View from above satellite

Ground track
Ground track

The orbit data is extracted from the following two-line orbital elements,

1 27369U 02003C   20190.34408235 -.00000054  00000-0  00000+0 0  9992
2 27369  23.7071 145.0227 6876907  77.8654 346.0715  2.37192614159006
Epoch (UTC): 08 July 2020 08:15:28
Eccentricity: 0.6876907
inclination: 23.7071°
perigee height: 1039 km
apogee height: 33704 km
right ascension of ascending node: 145.0227°
argument of perigee: 77.8654°
revolutions per day: 2.37192614
mean anomaly at epoch: 346.0715°
orbit number at epoch: 15900

The dashed part of the orbit path shows where the satellite is in the earth's shadow,  

DLR